Wind_Speed
24 22 20 20 19 19 20 21 22 23 24 25 24 25 25 25 25 26 27 27 28 28 28 29 30 31 31 32 32 31 31 30 29 29 29 29 29 30 31 32 32 33 33
26 23 22 22 22 22 21 21 22 24 25 25 26 27 29 29 29 30 29 31 31 32 33 33 34 34 33 33 32 32 33 31 31 32 33 33 32 33 34 35 36 37 37
26 25 25 24 23 23 23 21 22 25 26 27 29 29 31 31 32 32 32 33 34 33 34 34 35 37 37 35 34 35 35 33 34 35 36 36 35 37 38 39 39 40 41
28 27 27 25 24 24 23 23 23 25 26 28 30 32 33 33 34 35 34 33 33 34 35 35 36 37 34 34 35 36 36 36 38 39 38 38 39 39 40 41 43 44 45
29 29 28 27 26 25 24 25 26 27 28 31 32 34 36 36 37 37 37 35 34 36 38 37 38 39 37 38 38 39 40 40 41 40 40 39 41 43 44 45 47 48 49
31 30 29 28 27 27 27 29 28 28 30 31 33 36 37 38 39 40 39 38 38 39 40 40 40 40 41 41 42 42 43 43 43 43 43 44 46 47 48 50 51 52 54
31 31 31 30 30 30 31 32 31 31 33 35 37 38 39 39 41 41 40 40 40 41 41 42 42 43 44 44 44 45 45 45 46 47 48 50 51 52 53 54 55 56 58
31 32 33 32 33 33 33 34 35 35 36 37 39 40 41 42 42 42 43 43 43 43 43 44 44 45 46 47 47 48 48 49 51 52 54 55 56 56 57 58 59 60 61
33 33 34 35 36 37 38 38 39 39 39 41 41 42 43 42 43 43 43 44 44 45 45 46 47 48 48 49 50 51 52 53 54 56 57 58 59 61 61 62 63 64 64
34 35 37 38 39 39 39 40 40 40 41 41 42 42 43 43 44 44 45 45 46 46 47 48 49 50 51 52 53 55 56 57 58 59 60 62 63 64 65 65 66 66 67
36 37 37 38 38 39 40 40 39 41 41 41 41 42 42 43 44 44 45 45 46 47 48 50 51 52 54 55 56 58 58 59 61 62 63 64 65 66 66 66 66 67 66
36 36 36 37 38 39 39 40 40 40 40 41 40 40 40 41 42 43 44 46 48 49 50 52 53 54 56 57 58 60 61 62 63 64 65 66 66 66 66 66 65 65 65
36 36 36 35 35 36 36 37 38 38 38 38 39 39 40 41 43 44 46 47 49 50 52 53 55 56 58 59 60 62 63 63 64 65 65 65 65 65 64 63 62 61 60
35 33 33 33 32 32 34 35 36 36 36 36 37 38 39 42 43 44 46 48 50 51 53 55 56 58 59 60 61 63 64 64 65 65 65 65 63 62 60 58 56 55 53
35 34 33 33 33 32 33 34 33 33 34 35 37 38 40 41 43 45 47 49 50 52 54 55 57 58 60 61 62 63 64 64 64 63 62 61 58 56 53 51 49 47 46
33 33 33 33 33 32 32 33 33 33 34 35 36 38 40 41 43 45 47 49 50 52 54 55 57 58 60 61 62 63 63 62 60 58 56 53 50 48 46 44 42 41 39
28 29 30 29 30 30 31 32 32 32 33 35 36 37 39 41 43 44 46 47 49 50 52 53 55 57 58 59 59 58 57 54 51 49 46 43 41 39 38 36 35 34 33
26 25 25 26 27 27 28 29 29 30 31 33 34 36 38 40 41 42 44 45 46 48 50 51 52 52 52 52 50 48 45 42 40 37 35 34 32 30 29 28 27 26 25
24 23 24 25 25 26 27 27 28 29 31 32 33 35 36 38 39 40 41 42 44 45 47 48 47 47 45 43 41 38 35 33 30 28 27 25 23 22 21 20 20 19 19
22 22 23 25 26 26 27 28 29 30 31 32 33 34 35 36 37 37 38 39 41 42 42 42 41 39 38 37 34 31 29 26 23 21 19 17 16 15 14 14 14 14 15
22 24 25 24 25 26 27 27 28 28 29 30 31 32 32 33 33 34 35 36 37 37 37 36 34 33 32 30 28 25 22 19 17 15 13 12 11 11 11 12 12 12 12
21 22 22 23 23 24 25 25 26 27 28 28 28 28 29 29 29 30 31 32 32 31 31 30 29 28 26 24 21 19 16 14 12 11 11 10 10 10 11 11 11 12 12
19 19 20 21 21 22 23 24 25 25 26 26 26 26 26 26 26 27 27 27 27 27 26 25 24 23 22 20 17 14 12 11 11 11 10 10 10 11 11 12 12 13 14
16 17 17 19 20 21 22 23 23 24 23 23 23 23 23 22 22 23 23 23 23 23 22 21 20 19 18 16 14 12 11 11 10 11 11 11 11 12 13 14 14 15 16
14 15 17 18 19 20 21 22 22 21 20 20 20 20 19 19 20 20 20 19 19 19 19 18 17 16 14 13 12 11 11 11 11 11 12 12 13 14 14 15 16 17 17
12 14 15 16 17 18 19 19 18 18 18 18 18 18 17 17 17 17 17 17 17 17 16 15 14 13 12 11 11 11 11 12 12 12 12 13 13 14 15 16 17 18 18
Wind_Direction
235 234 236 238 239 241 241 240 236 239 244 247 249 252 255 259 259 261 264 267 269 272 273 277 279 280 281 282 284 283 282 283 284 283 283 283 284 285 286 285 284 284 283
233 235 237 237 237 238 241 244 246 245 246 248 251 253 258 263 262 265 270 272 273 275 275 278 281 283 283 281 283 285 285 286 287 287 287 285 285 286 286 285 285 284 283
232 236 240 241 240 242 244 250 255 253 253 254 256 259 261 264 268 271 273 274 276 277 278 282 284 285 284 283 285 288 287 286 288 290 288 287 286 287 287 286 286 286 284
235 238 241 244 245 247 251 256 260 261 262 264 264 265 267 272 275 276 277 281 281 282 286 287 286 286 289 289 291 292 290 290 292 291 290 287 287 288 287 286 286 286 285
237 240 244 248 250 253 256 258 262 266 267 270 270 272 276 279 280 282 285 288 289 292 292 291 290 289 291 294 293 293 294 293 292 290 290 289 288 289 288 288 287 286 286
240 242 246 250 254 256 259 262 266 269 271 272 273 276 278 282 283 287 287 290 292 293 293 290 292 291 291 293 293 293 294 292 291 290 290 289 289 290 290 289 288 287 287
243 246 249 253 256 259 260 265 268 271 273 275 277 278 279 282 285 288 289 290 290 292 292 292 292 292 292 293 293 292 292 292 291 290 290 290 290 290 289 289 288 288 287
248 251 254 256 258 261 263 266 268 271 272 274 276 279 281 284 284 285 288 289 289 290 290 290 291 291 291 292 292 292 292 291 291 290 291 291 291 290 289 289 288 288 287
253 256 258 259 261 262 265 267 270 272 274 276 277 279 281 282 284 285 286 287 287 289 289 289 290 291 292 292 292 292 292 291 291 290 290 291 290 289 289 288 287 287 286
259 260 260 261 263 265 267 268 269 271 274 275 277 278 280 281 283 285 286 287 288 288 290 291 291 291 292 292 292 292 292 292 291 291 290 290 289 289 288 288 288 287 287
264 265 265 264 265 268 270 269 271 272 272 274 276 278 281 282 283 285 285 287 288 289 290 291 291 291 292 292 292 292 292 291 291 290 290 290 289 289 289 289 288 288 288
266 269 271 270 270 270 270 271 272 272 274 275 277 280 281 282 283 284 285 287 289 290 290 290 291 291 292 293 293 292 292 291 291 290 290 291 290 290 290 289 289 289 289
270 271 272 273 271 269 269 270 272 274 275 274 276 278 279 281 283 284 286 288 289 290 290 291 292 292 293 293 293 293 292 292 292 292 291 291 291 291 291 291 290 290 290
273 274 273 270 270 271 273 272 273 275 276 276 277 278 280 282 284 286 288 289 289 291 292 292 293 294 294 294 294 293 293 293 293 292 292 292 293 293 292 292 292 291 291
273 277 275 274 273 274 274 274 273 276 279 280 281 282 284 286 287 289 289 290 291 293 294 294 294 295 296 295 295 294 294 294 294 294 293 293 292 292 292 293 293 293 293
274 277 277 277 275 275 276 279 279 279 281 282 283 284 286 288 289 290 291 293 294 295 296 296 297 297 297 296 296 296 296 296 295 294 293 293 292 292 293 293 293 294 294
277 277 276 275 276 277 278 281 282 282 282 282 284 286 287 289 291 293 294 295 297 298 299 299 299 299 300 300 300 300 299 298 297 296 295 294 293 294 294 294 295 296 298
279 279 278 279 281 281 282 283 284 284 285 286 286 288 289 292 293 295 297 299 300 301 303 304 305 305 305 306 305 304 304 303 302 300 299 298 298 297 297 297 298 299 300
273 274 275 279 281 282 283 284 286 287 288 289 291 292 294 295 297 298 300 302 303 305 306 307 308 309 310 310 310 310 310 310 309 308 307 307 306 305 304 304 305 306 308
270 273 276 278 280 283 285 286 288 289 290 292 294 296 297 298 300 302 303 305 307 308 310 311 313 313 314 314 313 313 314 315 316 317 318 318 318 318 319 320 322 323 323
277 278 280 282 284 286 288 289 290 292 294 295 296 297 298 300 302 305 307 309 311 313 315 316 318 319 319 319 320 321 322 324 327 330 332 334 337 338 340 342 343 343 342
275 276 279 283 285 287 289 292 294 296 297 297 298 299 301 303 305 309 312 314 315 317 319 321 324 325 326 328 330 332 335 341 347 352 356 358 360 1 2 4 5 5 4
277 279 283 286 289 293 295 296 297 298 299 300 301 302 305 307 310 314 317 318 320 322 324 327 330 333 336 339 343 348 356 4 9 15 17 19 20 20 21 22 21 20 17
285 288 291 295 298 299 300 300 301 301 301 302 303 305 308 311 315 318 321 322 325 328 331 334 337 340 343 348 354 1 10 20 28 34 34 35 35 36 36 33 29 26 21
294 296 299 302 303 304 304 304 303 303 303 304 306 309 312 315 318 321 325 328 332 335 338 341 345 348 354 0 9 18 28 37 42 43 44 45 44 42 38 33 27 22 18
303 305 306 307 309 309 309 309 307 306 307 308 310 311 311 314 318 323 328 332 337 341 344 348 354 1 9 17 25 34 42 48 49 49 50 48 45 40 36 30 25 22 19
Height
5850 5852 5855 5857 5858 5859 5861 5862 5863 5864 5864 5865 5865 5865 5864 5863 5862 5860 5860 5859 5858 5857 5856 5854 5853 5852 5850 5849 5848 5846 5845 5843 5842 5842 5840 5839 5838 5836 5835 5833 5831 5829 5827
5846 5848 5850 5852 5854 5855 5856 5857 5858 5858 5859 5859 5859 5859 5858 5857 5855 5854 5853 5852 5851 5850 5848 5847 5846 5844 5842 5841 5840 5838 5836 5835 5835 5834 5832 5831 5830 5828 5826 5824 5822 5820 5818
5841 5843 5845 5847 5849 5850 5850 5851 5852 5853 5853 5853 5852 5852 5852 5850 5848 5846 5845 5844 5843 5841 5840 5839 5838 5836 5834 5833 5831 5830 5829 5828 5827 5825 5824 5822 5820 5819 5817 5814 5812 5810 5808
5837 5839 5841 5842 5844 5845 5845 5846 5847 5848 5848 5847 5846 5845 5844 5843 5842 5840 5838 5836 5835 5834 5832 5831 5830 5828 5827 5825 5824 5822 5821 5820 5818 5816 5814 5812 5810 5809 5806 5804 5801 5799 5796
5832 5834 5835 5837 5838 5839 5839 5840 5841 5841 5841 5840 5840 5839 5838 5836 5835 5832 5831 5830 5828 5827 5825 5824 5822 5821 5820 5818 5816 5814 5813 5811 5809 5807 5804 5802 5799 5797 5795 5792 5790 5786 5784
5827 5828 5829 5831 5832 5833 5834 5834 5834 5834 5834 5833 5833 5832 5830 5828 5826 5824 5822 5822 5821 5819 5818 5816 5814 5813 5812 5809 5808 5806 5803 5801 5799 5796 5794 5791 5788 5785 5782 5779 5776 5773 5770
5821 5823 5824 5825 5826 5827 5827 5827 5827 5827 5827 5826 5825 5824 5822 5821 5819 5817 5815 5814 5813 5812 5810 5808 5806 5804 5802 5799 5797 5795 5793 5791 5788 5785 5782 5779 5776 5772 5769 5766 5762 5759 5755
5815 5817 5818 5819 5819 5820 5820 5820 5820 5820 5819 5818 5818 5816 5814 5813 5810 5809 5807 5806 5804 5803 5801 5799 5797 5794 5792 5789 5787 5784 5781 5779 5775 5772 5769 5765 5761 5758 5754 5750 5747 5743 5739
5809 5810 5811 5811 5812 5813 5813 5813 5812 5812 5811 5810 5809 5808 5806 5804 5802 5800 5798 5797 5795 5793 5791 5789 5786 5784 5781 5778 5775 5771 5768 5765 5762 5758 5754 5750 5746 5742 5738 5734 5730 5727 5723
5801 5802 5803 5804 5804 5805 5805 5805 5804 5803 5803 5801 5800 5799 5797 5796 5794 5791 5789 5787 5785 5783 5780 5778 5775 5772 5769 5765 5762 5758 5754 5751 5747 5742 5738 5734 5729 5725 5720 5716 5712 5708 5704
5793 5794 5795 5795 5795 5795 5795 5795 5795 5795 5794 5792 5791 5790 5788 5787 5785 5782 5780 5777 5775 5772 5769 5766 5763 5759 5756 5752 5748 5744 5739 5735 5731 5726 5721 5716 5711 5706 5702 5697 5693 5689 5684
5785 5786 5786 5787 5787 5787 5787 5786 5785 5785 5784 5783 5782 5780 5779 5777 5775 5773 5770 5767 5764 5761 5757 5754 5750 5746 5742 5738 5733 5728 5724 5719 5714 5709 5704 5698 5693 5688 5683 5678 5673 5669 5665
5778 5778 5778 5778 5778 5778 5778 5777 5776 5775 5774 5773 5772 5770 5769 5767 5765 5762 5759 5756 5752 5749 5745 5741 5737 5732 5727 5723 5718 5713 5708 5702 5697 5692 5686 5680 5675 5670 5665 5660 5655 5650 5646
5771 5771 5770 5770 5770 5769 5769 5768 5767 5766 5765 5764 5762 5761 5759 5756 5754 5751 5748 5744 5740 5736 5732 5728 5723 5718 5713 5708 5702 5697 5691 5685 5679 5674 5668 5662 5657 5652 5647 5643 5638 5634 5630
5763 5762 5762 5761 5761 5760 5760 5759 5758 5757 5756 5755 5753 5751 5749 5746 5743 5740 5737 5733 5728 5724 5719 5715 5709 5704 5699 5693 5686 5680 5674 5668 5661 5655 5650 5645 5640 5636 5631 5628 5624 5621 5617
5755 5755 5754 5753 5752 5752 5751 5750 5749 5748 5747 5745 5743 5741 5739 5736 5733 5729 5725 5721 5717 5712 5707 5702 5696 5690 5684 5677 5671 5664 5657 5650 5644 5638 5633 5629 5625 5621 5618 5615 5612 5609 5606
5747 5747 5746 5745 5744 5743 5742 5742 5740 5739 5738 5736 5734 5731 5729 5726 5722 5719 5714 5710 5705 5700 5695 5689 5682 5676 5669 5662 5654 5647 5640 5634 5628 5623 5619 5615 5612 5609 5607 5604 5602 5599 5596
5740 5739 5738 5737 5737 5735 5734 5733 5732 5731 5729 5727 5724 5722 5719 5716 5712 5708 5704 5699 5694 5689 5683 5676 5669 5662 5655 5647 5640 5633 5627 5621 5616 5611 5608 5605 5602 5600 5598 5596 5594 5591 5589
5733 5732 5731 5730 5729 5728 5727 5726 5724 5722 5720 5718 5716 5713 5710 5706 5703 5699 5694 5689 5683 5678 5672 5665 5658 5651 5644 5637 5630 5624 5618 5613 5608 5604 5601 5598 5596 5594 5592 5590 5588 5586 5584
5727 5726 5724 5723 5722 5721 5719 5718 5716 5714 5712 5709 5707 5704 5701 5697 5694 5689 5685 5680 5674 5668 5662 5655 5649 5642 5636 5629 5623 5617 5612 5607 5603 5599 5596 5594 5592 5590 5588 5587 5585 5583 5581
5720 5719 5718 5717 5715 5714 5712 5710 5709 5706 5704 5701 5699 5696 5693 5689 5686 5681 5677 5672 5666 5660 5654 5648 5642 5636 5629 5623 5618 5612 5608 5604 5600 5597 5595 5593 5591 5589 5587 5585 5583 5581 5579
5714 5713 5712 5710 5709 5707 5705 5703 5701 5699 5697 5694 5691 5689 5686 5682 5678 5674 5669 5665 5659 5654 5648 5643 5637 5631 5625 5619 5614 5609 5605 5602 5599 5596 5594 5593 5591 5589 5587 5585 5583 5581 5579
5709 5707 5706 5704 5703 5701 5699 5697 5695 5693 5690 5687 5684 5682 5679 5675 5672 5668 5664 5659 5654 5649 5644 5638 5633 5628 5622 5617 5613 5609 5605 5602 5599 5597 5595 5594 5592 5590 5588 5586 5584 5582 5579
5703 5702 5701 5699 5697 5696 5693 5691 5689 5686 5684 5681 5679 5676 5673 5669 5666 5663 5659 5654 5650 5645 5640 5635 5631 5626 5621 5617 5613 5610 5606 5604 5601 5599 5597 5596 5594 5592 5590 5588 5586 5583 5581
5699 5698 5697 5695 5693 5691 5688 5686 5683 5680 5678 5676 5673 5670 5667 5665 5662 5658 5655 5651 5647 5642 5638 5634 5629 5625 5621 5617 5614 5611 5608 5606 5604 5602 5600 5598 5596 5594 5593 5590 5588 5585 5582
5696 5695 5693 5691 5689 5686 5683 5681 5678 5675 5673 5670 5668 5665 5663 5660 5658 5655 5652 5648 5644 5640 5636 5632 5629 5625 5622 5618 5616 5613 5611 5608 5607 5605 5603 5601 5599 5597 5595 5593 5590 5587 5584